Belleville, IL

3:46 AM CDT on September 22, 2017 (GMT -0500)
Scott Air Force Base-Midamerica

Weather History for KBLV - July, 2013

Change the Weather History Date:

Friday, July 19, 2013

  Actual Average Record
Temperature  
Mean Temperature 82 °F -  
Max Temperature 93 °F 90 °F 104 °F (1954)
Min Temperature 72 °F 66 °F 50 °F (1984)
Cooling Degree Days 18    
Growing Degree Days 32 (Base 50)    
Moisture  
Dew Point 74 °F    
Average Humidity 76    
Maximum Humidity 99    
Minimum Humidity 55    
Precipitation  
Precipitation 0.00 in - - ()
Sea Level Pressure  
Sea Level Pressure 29.96 in    
Wind  
Wind Speed 5 mph (South)    
Max Wind Speed 10 mph    
Max Gust Speed -    
Visibility 10 miles    
Events      
Averages and records for this station are not official NWS values.
T = Trace of Precipitation, MM = Missing Value Source: NWS Daily Summary

Daily Weather History Graph

Daily Weather History Graph

Search for Another Location

Airport or City:

Trip Planner

Search our weather history database for the weather conditions in past years. The results will help you decide how hot, cold, wet, or windy it might be!

Date:

Astronomy

Jul. 19, 2013 Rise Set
Actual Time 5:50 AM CDT 8:20 PM CDT
Civil Twilight 5:19 AM CDT 8:50 PM CDT
Nautical Twilight 4:42 AM CDT 9:28 PM CDT
Astronomical Twilight 3:59 AM CDT 10:10 PM CDT
Moon 5:22 PM CDT (7/19) 2:31 AM CDT (7/19)
Length of Visible Light 15h 30m
Length of Day
14h 29m
Waxing Gibbous, 87% of the Moon is Illuminated
Jul 19
Waxing Gibbous
Jul 22
Full
Jul 29
Last Quarter
Aug 6
New
Aug 14
First Quarter

Hourly Weather History & Observations

Time (CDT) Temp. Heat Index Dew Point Humidity Pressure Visibility Wind Dir Wind Speed Gust Speed Precip Events Conditions
12:58 AM 77.5 °F - 75.4 °F 93% 30.03 in 10.0 mi South 1.2 mph - N/A   Clear
1:58 AM 76.8 °F - 74.3 °F 92% 30.02 in 10.0 mi SW 3.5 mph - N/A   Clear
2:58 AM 75.0 °F - 74.7 °F 99% 30.01 in 10.0 mi South 4.6 mph - N/A   Clear
3:58 AM 74.1 °F - 73.8 °F 99% 30.00 in 10.0 mi West 3.5 mph - N/A   Clear
4:58 AM 73.2 °F - 73.0 °F 99% 30.00 in 10.0 mi South 5.8 mph - N/A   Clear
5:58 AM 72.7 °F - 72.3 °F 99% 30.00 in 10.0 mi SSE 5.8 mph - N/A   Clear
6:58 AM 74.7 °F - 74.1 °F 98% 30.01 in 10.0 mi South 4.6 mph - N/A   Clear
7:58 AM 78.1 °F - 73.4 °F 85% 30.02 in 10.0 mi South 4.6 mph - N/A   Clear
8:58 AM 82.2 °F 88.0 °F 73.8 °F 75% 30.02 in 10.0 mi South 5.8 mph - N/A   Clear
9:58 AM 84.7 °F 92.5 °F 74.3 °F 71% 30.01 in 10.0 mi South 6.9 mph - N/A   Clear
10:58 AM 87.6 °F 97.1 °F 75.0 °F 66% 30.01 in 10.0 mi South 8.1 mph - N/A   Clear
11:58 AM 89.8 °F 100.3 °F 75.4 °F 62% 30.00 in 10.0 mi South 6.9 mph - N/A   Clear
12:58 PM 90.7 °F 100.1 °F 74.3 °F 58% 29.98 in 10.0 mi South 9.2 mph - N/A   Partly Cloudy
1:58 PM 92.1 °F 103.0 °F 74.8 °F 57% 29.96 in 10.0 mi SSW 9.2 mph - N/A   Clear
2:58 PM 92.8 °F 104.1 °F 75.0 °F 56% 29.92 in 10.0 mi South 10.4 mph - N/A   Clear
3:58 PM 93.0 °F 103.9 °F 74.7 °F 55% 29.91 in 10.0 mi South 9.2 mph - N/A   Clear
4:58 PM 92.5 °F 103.9 °F 75.2 °F 57% 29.90 in 10.0 mi South 10.4 mph - N/A   Clear
5:58 PM 91.6 °F 101.7 °F 74.3 °F 57% 29.89 in 10.0 mi South 10.4 mph - N/A   Clear
6:58 PM 89.2 °F 99.0 °F 74.7 °F 62% 29.88 in 10.0 mi South 10.4 mph - N/A   Clear
7:58 PM 84.4 °F 92.7 °F 75.2 °F 74% 29.89 in 10.0 mi South 6.9 mph - N/A   Clear
8:58 PM 82.9 °F 89.7 °F 74.5 °F 75% 29.90 in 10.0 mi South 3.5 mph - N/A   Clear
9:58 PM 80.2 °F 84.9 °F 73.9 °F 81% 29.91 in 10.0 mi South 5.8 mph - N/A   Clear
10:58 PM 80.2 °F 84.3 °F 72.3 °F 77% 29.92 in 10.0 mi South 8.1 mph - N/A   Clear
11:58 PM 79.0 °F - 72.0 °F 79% 29.92 in 10.0 mi SSW 5.8 mph - N/A   Clear